owner,sensor,date,latitude,longitude,vertical_datum,wind_speed,wind_to_direction,wind_speed_of_gust,qcFlag 
SCCF RECON,ioos:station:SCCF:16:1,2017-10-01T04:30:00Z,26.4345,-81.9647,10.0,3.3,79.0,-9999.0,'1111122,1111122,1111122' 
SCCF RECON,ioos:station:SCCF:16:1,2017-10-01T05:30:00Z,26.4345,-81.9647,10.0,3.9,84.1,-9999.0,'1111122,1111122,1111122' 
SCCF RECON,ioos:station:SCCF:16:1,2017-10-01T06:30:00Z,26.4345,-81.9647,10.0,3.0,92.4,-9999.0,'1111122,1111122,1111122' 
SCCF RECON,ioos:station:SCCF:16:1,2017-10-01T07:30:00Z,26.4345,-81.9647,10.0,3.5,115.1,-9999.0,'1111122,1111122,1111122' 
SCCF RECON,ioos:station:SCCF:16:1,2017-10-01T08:30:00Z,26.4345,-81.9647,10.0,3.1,88.8,-9999.0,'1111122,1111122,1111122' 
SCCF RECON,ioos:station:SCCF:16:1,2017-10-01T09:30:00Z,26.4345,-81.9647,10.0,2.9,72.8,-9999.0,'1111122,1111122,1111122' 
SCCF RECON,ioos:station:SCCF:16:1,2017-10-01T10:30:00Z,26.4345,-81.9647,10.0,2.9,83.4,-9999.0,'1111122,1111122,1111122' 
SCCF RECON,ioos:station:SCCF:16:1,2017-10-01T11:30:00Z,26.4345,-81.9647,10.0,3.7,69.5,-9999.0,'1111122,1111122,1111122' 
SCCF RECON,ioos:station:SCCF:16:1,2017-10-01T12:30:00Z,26.4345,-81.9647,10.0,2.8,50.3,-9999.0,'1111122,1111122,1111122' 
SCCF RECON,ioos:station:SCCF:16:1,2017-10-01T13:30:00Z,26.4345,-81.9647,10.0,3.3,60.9,-9999.0,'1111122,1111122,1111122' 
SCCF RECON,ioos:station:SCCF:16:1,2017-10-01T14:30:00Z,26.4345,-81.9647,10.0,5.4,113.7,-9999.0,'1111122,1111122,1111122' 
SCCF RECON,ioos:station:SCCF:16:1,2017-10-01T15:30:00Z,26.4345,-81.9647,10.0,3.9,135.3,-9999.0,'1111122,1111122,1111122' 
SCCF RECON,ioos:station:SCCF:16:1,2017-10-01T16:30:00Z,26.4345,-81.9647,10.0,2.1,161.7,-9999.0,'1111122,1111122,1111122' 
SCCF RECON,ioos:station:SCCF:16:1,2017-10-01T17:30:00Z,26.4345,-81.9647,10.0,3.2,135.2,-9999.0,'1111122,1111122,1111122' 
SCCF RECON,ioos:station:SCCF:16:1,2017-10-01T18:30:00Z,26.4345,-81.9647,10.0,2.5,229.9,-9999.0,'1111122,1111122,1111122' 
SCCF RECON,ioos:station:SCCF:16:1,2017-10-01T19:30:00Z,26.4345,-81.9647,10.0,0.7,231.3,-9999.0,'1111122,1111122,1111122' 
SCCF RECON,ioos:station:SCCF:16:1,2017-10-01T20:30:00Z,26.4345,-81.9647,10.0,3.0,261.5,-9999.0,'1111122,1111122,1111122' 
SCCF RECON,ioos:station:SCCF:16:1,2017-10-01T21:30:00Z,26.4345,-81.9647,10.0,1.7,317.2,-9999.0,'1111122,1111122,1111122' 
SCCF RECON,ioos:station:SCCF:16:1,2017-10-01T22:30:00Z,26.4345,-81.9647,10.0,6.4,111.4,-9999.0,'1111122,1111122,1111122' 
SCCF RECON,ioos:station:SCCF:16:1,2017-10-02T04:30:00Z,26.4345,-81.9647,10.0,5.7,91.6,-9999.0,'1111122,1111122,1111122' 
SCCF RECON,ioos:station:SCCF:16:1,2017-10-02T05:30:00Z,26.4345,-81.9647,10.0,6.5,78.3,-9999.0,'1111122,1111122,1111122' 
SCCF RECON,ioos:station:SCCF:16:1,2017-10-02T07:00:00Z,26.4345,-81.9647,10.0,6.3,74.8,-9999.0,'1111122,1111122,1111122' 
SCCF RECON,ioos:station:SCCF:16:1,2017-10-02T07:30:00Z,26.4345,-81.9647,10.0,6.0,80.7,-9999.0,'1111122,1111122,1111122' 
SCCF RECON,ioos:station:SCCF:16:1,2017-10-02T08:30:00Z,26.4345,-81.9647,10.0,5.2,72.7,-9999.0,'1111122,1111122,1111122' 
SCCF RECON,ioos:station:SCCF:16:1,2017-10-02T09:30:00Z,26.4345,-81.9647,10.0,5.0,75.5,-9999.0,'1111122,1111122,1111122' 
SCCF RECON,ioos:station:SCCF:16:1,2017-10-02T10:30:00Z,26.4345,-81.9647,10.0,6.4,76.2,-9999.0,'1111122,1111122,1111122' 
SCCF RECON,ioos:station:SCCF:16:1,2017-10-02T11:30:00Z,26.4345,-81.9647,10.0,6.2,61.8,-9999.0,'1111122,1111122,1111122' 
SCCF RECON,ioos:station:SCCF:16:1,2017-10-02T12:30:00Z,26.4345,-81.9647,10.0,6.7,75.9,-9999.0,'1111122,1111122,1111122' 
SCCF RECON,ioos:station:SCCF:16:1,2017-10-02T13:30:00Z,26.4345,-81.9647,10.0,7.1,100.9,-9999.0,'1111122,1111122,1111122' 
SCCF RECON,ioos:station:SCCF:16:1,2017-10-02T14:30:00Z,26.4345,-81.9647,10.0,6.6,116.2,-9999.0,'1111122,1111122,1111122' 
SCCF RECON,ioos:station:SCCF:16:1,2017-10-02T15:30:00Z,26.4345,-81.9647,10.0,6.2,105.9,-9999.0,'1111122,1111122,1111122' 
SCCF RECON,ioos:station:SCCF:16:1,2017-10-02T16:30:00Z,26.4345,-81.9647,10.0,6.0,97.7,-9999.0,'1111122,1111122,1111122' 
SCCF RECON,ioos:station:SCCF:16:1,2017-10-02T17:30:00Z,26.4345,-81.9647,10.0,8.9,93.6,-9999.0,'1111122,1111122,1111122' 
SCCF RECON,ioos:station:SCCF:16:1,2017-10-02T18:30:00Z,26.4345,-81.9647,10.0,5.8,138.4,-9999.0,'1111122,1111122,1111122' 
SCCF RECON,ioos:station:SCCF:16:1,2017-10-02T19:30:00Z,26.4345,-81.9647,10.0,8.0,89.6,-9999.0,'1111122,1111122,1111122' 
SCCF RECON,ioos:station:SCCF:16:1,2017-10-02T20:30:00Z,26.4345,-81.9647,10.0,8.6,94.9,-9999.0,'1111122,1111122,1111122' 
SCCF RECON,ioos:station:SCCF:16:1,2017-10-02T21:30:00Z,26.4345,-81.9647,10.0,6.2,28.1,-9999.0,'1111122,1111122,1111122' 
SCCF RECON,ioos:station:SCCF:16:1,2017-10-02T22:30:00Z,26.4345,-81.9647,10.0,4.9,59.8,-9999.0,'1111122,1111122,1111122' 
SCCF RECON,ioos:station:SCCF:16:1,2017-10-03T04:30:00Z,26.4345,-81.9647,10.0,6.5,52.7,-9999.0,'1111122,1111122,1111122' 
SCCF RECON,ioos:station:SCCF:16:1,2017-10-03T05:30:00Z,26.4345,-81.9647,10.0,7.7,58.5,-9999.0,'1111122,1111122,1111122' 
SCCF RECON,ioos:station:SCCF:16:1,2017-10-03T06:30:00Z,26.4345,-81.9647,10.0,5.8,50.5,-9999.0,'1111122,1111122,1111122' 
SCCF RECON,ioos:station:SCCF:16:1,2017-10-03T07:30:00Z,26.4345,-81.9647,10.0,6.6,60.4,-9999.0,'1111122,1111122,1111122' 
SCCF RECON,ioos:station:SCCF:16:1,2017-10-03T08:30:00Z,26.4345,-81.9647,10.0,5.9,44.0,-9999.0,'1111122,1111122,1111122' 
SCCF RECON,ioos:station:SCCF:16:1,2017-10-03T09:30:00Z,26.4345,-81.9647,10.0,7.0,43.5,-9999.0,'1111122,1111122,1111122' 
SCCF RECON,ioos:station:SCCF:16:1,2017-10-03T12:00:00Z,26.4345,-81.9647,10.0,6.9,36.0,-9999.0,'1111122,1111122,1111122' 
SCCF RECON,ioos:station:SCCF:16:1,2017-10-03T12:30:00Z,26.4345,-81.9647,10.0,7.4,32.1,-9999.0,'1111122,1111122,1111122' 
SCCF RECON,ioos:station:SCCF:16:1,2017-10-03T13:30:00Z,26.4345,-81.9647,10.0,8.3,53.1,-9999.0,'1111122,1111122,1111122' 
SCCF RECON,ioos:station:SCCF:16:1,2017-10-03T14:30:00Z,26.4345,-81.9647,10.0,5.2,32.5,-9999.0,'1111122,1111122,1111122' 
SCCF RECON,ioos:station:SCCF:16:1,2017-10-03T15:30:00Z,26.4345,-81.9647,10.0,7.0,77.6,-9999.0,'1111122,1111122,1111122' 
SCCF RECON,ioos:station:SCCF:16:1,2017-10-03T16:30:00Z,26.4345,-81.9647,10.0,7.5,97.9,-9999.0,'1111122,1111122,1111122' 
SCCF RECON,ioos:station:SCCF:16:1,2017-10-03T17:30:00Z,26.4345,-81.9647,10.0,7.7,66.4,-9999.0,'1111122,1111122,1111122' 
SCCF RECON,ioos:station:SCCF:16:1,2017-10-03T18:30:00Z,26.4345,-81.9647,10.0,9.0,80.9,-9999.0,'1111122,1111122,1111122' 
SCCF RECON,ioos:station:SCCF:16:1,2017-10-03T19:30:00Z,26.4345,-81.9647,10.0,11.5,77.4,-9999.0,'1111122,1111122,1111122' 
SCCF RECON,ioos:station:SCCF:16:1,2017-10-03T20:30:00Z,26.4345,-81.9647,10.0,8.2,60.4,-9999.0,'1111122,1111122,1111122' 
SCCF RECON,ioos:station:SCCF:16:1,2017-10-03T21:30:00Z,26.4345,-81.9647,10.0,9.6,58.6,-9999.0,'1111122,1111122,1111122' 
SCCF RECON,ioos:station:SCCF:16:1,2017-10-03T22:30:00Z,26.4345,-81.9647,10.0,8.4,66.7,-9999.0,'1111122,1111122,1111122' 
SCCF RECON,ioos:station:SCCF:16:1,2017-10-04T04:30:00Z,26.4345,-81.9647,10.0,6.5,48.3,-9999.0,'1111122,1111122,1111122' 
SCCF RECON,ioos:station:SCCF:16:1,2017-10-04T05:30:00Z,26.4345,-81.9647,10.0,7.7,63.8,-9999.0,'1111122,1111122,1111122' 
SCCF RECON,ioos:station:SCCF:16:1,2017-10-04T06:30:00Z,26.4345,-81.9647,10.0,9.2,65.7,-9999.0,'1111122,1111122,1111122' 
SCCF RECON,ioos:station:SCCF:16:1,2017-10-04T07:30:00Z,26.4345,-81.9647,10.0,10.3,58.2,-9999.0,'1111122,1111122,1111122' 
SCCF RECON,ioos:station:SCCF:16:1,2017-10-04T08:30:00Z,26.4345,-81.9647,10.0,7.5,60.4,-9999.0,'1111122,1111122,1111122' 
SCCF RECON,ioos:station:SCCF:16:1,2017-10-04T09:30:00Z,26.4345,-81.9647,10.0,8.2,64.3,-9999.0,'1111122,1111122,1111122' 
SCCF RECON,ioos:station:SCCF:16:1,2017-10-04T11:30:00Z,26.4345,-81.9647,10.0,7.0,56.6,-9999.0,'1111122,1111122,1111122' 
SCCF RECON,ioos:station:SCCF:16:1,2017-10-04T12:30:00Z,26.4345,-81.9647,10.0,7.5,49.9,-9999.0,'1111122,1111122,1111122' 
SCCF RECON,ioos:station:SCCF:16:1,2017-10-04T13:30:00Z,26.4345,-81.9647,10.0,9.4,63.6,-9999.0,'1111122,1111122,1111122' 
SCCF RECON,ioos:station:SCCF:16:1,2017-10-04T14:30:00Z,26.4345,-81.9647,10.0,11.0,69.6,-9999.0,'1111122,1111122,1111122' 
SCCF RECON,ioos:station:SCCF:16:1,2017-10-04T15:30:00Z,26.4345,-81.9647,10.0,7.6,66.8,-9999.0,'1111122,1111122,1111122' 
SCCF RECON,ioos:station:SCCF:16:1,2017-10-04T16:30:00Z,26.4345,-81.9647,10.0,10.8,78.3,-9999.0,'1111122,1111122,1111122' 
SCCF RECON,ioos:station:SCCF:16:1,2017-10-04T17:30:00Z,26.4345,-81.9647,10.0,11.1,77.8,-9999.0,'1111122,1111122,1111122' 
SCCF RECON,ioos:station:SCCF:16:1,2017-10-04T18:30:00Z,26.4345,-81.9647,10.0,9.4,70.6,-9999.0,'1111122,1111122,1111122' 
SCCF RECON,ioos:station:SCCF:16:1,2017-10-04T19:30:00Z,26.4345,-81.9647,10.0,9.2,78.0,-9999.0,'1111122,1111122,1111122' 
SCCF RECON,ioos:station:SCCF:16:1,2017-10-04T20:30:00Z,26.4345,-81.9647,10.0,10.0,78.4,-9999.0,'1111122,1111122,1111122' 
SCCF RECON,ioos:station:SCCF:16:1,2017-10-04T21:30:00Z,26.4345,-81.9647,10.0,9.1,74.3,-9999.0,'1111122,1111122,1111122' 
SCCF RECON,ioos:station:SCCF:16:1,2017-10-04T22:30:00Z,26.4345,-81.9647,10.0,8.5,60.1,-9999.0,'1111122,1111122,1111122' 
SCCF RECON,ioos:station:SCCF:16:1,2017-10-05T04:30:00Z,26.4345,-81.9647,10.0,7.4,24.8,-9999.0,'1111122,1111122,1111122' 
SCCF RECON,ioos:station:SCCF:16:1,2017-10-05T05:30:00Z,26.4345,-81.9647,10.0,7.1,25.2,-9999.0,'1111122,1111122,1111122' 
SCCF RECON,ioos:station:SCCF:16:1,2017-10-05T06:30:00Z,26.4345,-81.9647,10.0,7.3,25.0,-9999.0,'1111122,1111122,1111122' 
SCCF RECON,ioos:station:SCCF:16:1,2017-10-05T07:30:00Z,26.4345,-81.9647,10.0,7.6,25.8,-9999.0,'1111122,1111122,1111122' 
SCCF RECON,ioos:station:SCCF:16:1,2017-10-05T08:30:00Z,26.4345,-81.9647,10.0,6.5,33.8,-9999.0,'1111122,1111122,1111122' 
SCCF RECON,ioos:station:SCCF:16:1,2017-10-05T09:30:00Z,26.4345,-81.9647,10.0,6.2,40.8,-9999.0,'1111122,1111122,1111122' 
SCCF RECON,ioos:station:SCCF:16:1,2017-10-05T10:30:00Z,26.4345,-81.9647,10.0,5.3,43.2,-9999.0,'1111122,1111122,1111122' 
SCCF RECON,ioos:station:SCCF:16:1,2017-10-05T11:30:00Z,26.4345,-81.9647,10.0,6.9,54.0,-9999.0,'1111122,1111122,1111122' 
SCCF RECON,ioos:station:SCCF:16:1,2017-10-05T13:30:00Z,26.4345,-81.9647,10.0,6.5,56.5,-9999.0,'1111122,1111122,1111122' 
SCCF RECON,ioos:station:SCCF:16:1,2017-10-05T14:30:00Z,26.4345,-81.9647,10.0,8.7,77.9,-9999.0,'1111122,1111122,1111122' 
SCCF RECON,ioos:station:SCCF:16:1,2017-10-05T15:30:00Z,26.4345,-81.9647,10.0,9.0,71.7,-9999.0,'1111122,1111122,1111122' 
SCCF RECON,ioos:station:SCCF:16:1,2017-10-05T16:30:00Z,26.4345,-81.9647,10.0,8.1,64.7,-9999.0,'1111122,1111122,1111122' 
SCCF RECON,ioos:station:SCCF:16:1,2017-10-05T18:00:00Z,26.4345,-81.9647,10.0,8.2,80.1,-9999.0,'1111122,1111122,1111122' 
SCCF RECON,ioos:station:SCCF:16:1,2017-10-05T19:00:00Z,26.4345,-81.9647,10.0,11.1,83.2,-9999.0,'1111122,1111122,1111122' 
SCCF RECON,ioos:station:SCCF:16:1,2017-10-05T20:00:00Z,26.4345,-81.9647,10.0,7.4,75.4,-9999.0,'1111122,1111122,1111122' 
SCCF RECON,ioos:station:SCCF:16:1,2017-10-05T20:30:00Z,26.4345,-81.9647,10.0,7.2,69.6,-9999.0,'1111122,1111122,1111122' 
SCCF RECON,ioos:station:SCCF:16:1,2017-10-05T21:30:00Z,26.4345,-81.9647,10.0,8.9,75.4,-9999.0,'1111122,1111122,1111122' 
SCCF RECON,ioos:station:SCCF:16:1,2017-10-05T22:30:00Z,26.4345,-81.9647,10.0,7.7,58.6,-9999.0,'1111122,1111122,1111122' 
SCCF RECON,ioos:station:SCCF:16:1,2017-10-06T04:30:00Z,26.4345,-81.9647,10.0,4.9,63.3,-9999.0,'1111122,1111122,1111122' 
SCCF RECON,ioos:station:SCCF:16:1,2017-10-06T05:30:00Z,26.4345,-81.9647,10.0,5.3,65.9,-9999.0,'1111122,1111122,1111122' 
SCCF RECON,ioos:station:SCCF:16:1,2017-10-06T06:30:00Z,26.4345,-81.9647,10.0,4.7,28.5,-9999.0,'1111122,1111122,1111122' 
SCCF RECON,ioos:station:SCCF:16:1,2017-10-06T07:30:00Z,26.4345,-81.9647,10.0,5.1,53.8,-9999.0,'1111122,1111122,1111122' 
SCCF RECON,ioos:station:SCCF:16:1,2017-10-06T08:30:00Z,26.4345,-81.9647,10.0,4.8,71.6,-9999.0,'1111122,1111122,1111122' 
SCCF RECON,ioos:station:SCCF:16:1,2017-10-06T09:30:00Z,26.4345,-81.9647,10.0,4.7,59.0,-9999.0,'1111122,1111122,1111122' 
SCCF RECON,ioos:station:SCCF:16:1,2017-10-06T10:30:00Z,26.4345,-81.9647,10.0,6.3,78.1,-9999.0,'1111122,1111122,1111122' 
SCCF RECON,ioos:station:SCCF:16:1,2017-10-06T11:30:00Z,26.4345,-81.9647,10.0,4.3,72.2,-9999.0,'1111122,1111122,1111122' 
SCCF RECON,ioos:station:SCCF:16:1,2017-10-06T12:30:00Z,26.4345,-81.9647,10.0,5.6,88.9,-9999.0,'1111122,1111122,1111122' 
SCCF RECON,ioos:station:SCCF:16:1,2017-10-06T13:30:00Z,26.4345,-81.9647,10.0,3.6,141.1,-9999.0,'1111122,1111122,1111122' 
SCCF RECON,ioos:station:SCCF:16:1,2017-10-06T14:30:00Z,26.4345,-81.9647,10.0,5.9,128.2,-9999.0,'1111122,1111122,1111122' 
SCCF RECON,ioos:station:SCCF:16:1,2017-10-06T15:30:00Z,26.4345,-81.9647,10.0,5.6,143.8,-9999.0,'1111122,1111122,1111122' 
SCCF RECON,ioos:station:SCCF:16:1,2017-10-06T16:30:00Z,26.4345,-81.9647,10.0,1.4,196.9,-9999.0,'1111122,1111122,1111122' 
SCCF RECON,ioos:station:SCCF:16:1,2017-10-06T17:30:00Z,26.4345,-81.9647,10.0,0.1,176.3,-9999.0,'1111122,1111122,1111122' 
SCCF RECON,ioos:station:SCCF:16:1,2017-10-06T18:30:00Z,26.4345,-81.9647,10.0,0.8,201.1,-9999.0,'1111122,1111122,1111122' 
SCCF RECON,ioos:station:SCCF:16:1,2017-10-06T19:30:00Z,26.4345,-81.9647,10.0,5.4,132.1,-9999.0,'1111122,1111122,1111122' 
SCCF RECON,ioos:station:SCCF:16:1,2017-10-06T20:30:00Z,26.4345,-81.9647,10.0,6.7,128.2,-9999.0,'1111122,1111122,1111122' 
SCCF RECON,ioos:station:SCCF:16:1,2017-10-06T21:30:00Z,26.4345,-81.9647,10.0,3.0,145.4,-9999.0,'1111122,1111122,1111122' 
SCCF RECON,ioos:station:SCCF:16:1,2017-10-06T22:30:00Z,26.4345,-81.9647,10.0,3.9,86.7,-9999.0,'1111122,1111122,1111122' 
SCCF RECON,ioos:station:SCCF:16:1,2017-10-07T04:30:00Z,26.4345,-81.9647,10.0,4.9,141.0,-9999.0,'1111122,1111122,1111122' 
SCCF RECON,ioos:station:SCCF:16:1,2017-10-07T05:30:00Z,26.4345,-81.9647,10.0,5.8,118.3,-9999.0,'1111122,1111122,1111122' 
SCCF RECON,ioos:station:SCCF:16:1,2017-10-07T06:30:00Z,26.4345,-81.9647,10.0,6.5,113.3,-9999.0,'1111122,1111122,1111122' 
SCCF RECON,ioos:station:SCCF:16:1,2017-10-07T07:30:00Z,26.4345,-81.9647,10.0,7.6,117.8,-9999.0,'1111122,1111122,1111122' 
SCCF RECON,ioos:station:SCCF:16:1,2017-10-07T08:30:00Z,26.4345,-81.9647,10.0,5.6,117.6,-9999.0,'1111122,1111122,1111122' 
SCCF RECON,ioos:station:SCCF:16:1,2017-10-07T09:30:00Z,26.4345,-81.9647,10.0,6.1,113.2,-9999.0,'1111122,1111122,1111122' 
SCCF RECON,ioos:station:SCCF:16:1,2017-10-07T10:30:00Z,26.4345,-81.9647,10.0,7.2,120.5,-9999.0,'1111122,1111122,1111122' 
SCCF RECON,ioos:station:SCCF:16:1,2017-10-07T11:30:00Z,26.4345,-81.9647,10.0,6.0,130.5,-9999.0,'1111122,1111122,1111122' 
SCCF RECON,ioos:station:SCCF:16:1,2017-10-07T12:30:00Z,26.4345,-81.9647,10.0,6.5,130.6,-9999.0,'1111122,1111122,1111122' 
SCCF RECON,ioos:station:SCCF:16:1,2017-10-07T13:30:00Z,26.4345,-81.9647,10.0,7.4,124.8,-9999.0,'1111122,1111122,1111122' 
SCCF RECON,ioos:station:SCCF:16:1,2017-10-07T14:30:00Z,26.4345,-81.9647,10.0,7.2,148.4,-9999.0,'1111122,1111122,1111122' 
SCCF RECON,ioos:station:SCCF:16:1,2017-10-07T15:30:00Z,26.4345,-81.9647,10.0,8.9,143.5,-9999.0,'1111122,1111122,1111122' 
SCCF RECON,ioos:station:SCCF:16:1,2017-10-07T16:30:00Z,26.4345,-81.9647,10.0,6.6,177.8,-9999.0,'1111122,1111122,1111122' 
SCCF RECON,ioos:station:SCCF:16:1,2017-10-07T17:30:00Z,26.4345,-81.9647,10.0,9.5,188.4,-9999.0,'1111122,1111122,1111122' 
SCCF RECON,ioos:station:SCCF:16:1,2017-10-07T18:30:00Z,26.4345,-81.9647,10.0,8.9,193.5,-9999.0,'1111122,1111122,1111122' 
SCCF RECON,ioos:station:SCCF:16:1,2017-10-07T19:30:00Z,26.4345,-81.9647,10.0,9.6,178.8,-9999.0,'1111122,1111122,1111122' 
SCCF RECON,ioos:station:SCCF:16:1,2017-10-07T20:30:00Z,26.4345,-81.9647,10.0,8.2,166.0,-9999.0,'1111122,1111122,1111122' 
SCCF RECON,ioos:station:SCCF:16:1,2017-10-07T21:30:00Z,26.4345,-81.9647,10.0,7.0,168.6,-9999.0,'1111122,1111122,1111122' 
SCCF RECON,ioos:station:SCCF:16:1,2017-10-07T22:30:00Z,26.4345,-81.9647,10.0,6.9,161.2,-9999.0,'1111122,1111122,1111122' 
SCCF RECON,ioos:station:SCCF:16:1,2017-10-08T04:30:00Z,26.4345,-81.9647,10.0,4.9,153.2,-9999.0,'1111122,1111122,1111122' 
SCCF RECON,ioos:station:SCCF:16:1,2017-10-08T05:30:00Z,26.4345,-81.9647,10.0,5.6,154.6,-9999.0,'1111122,1111122,1111122' 
SCCF RECON,ioos:station:SCCF:16:1,2017-10-08T06:30:00Z,26.4345,-81.9647,10.0,4.9,143.6,-9999.0,'1111122,1111122,1111122' 
SCCF RECON,ioos:station:SCCF:16:1,2017-10-08T07:30:00Z,26.4345,-81.9647,10.0,4.0,149.3,-9999.0,'1111122,1111122,1111122' 
SCCF RECON,ioos:station:SCCF:16:1,2017-10-08T08:30:00Z,26.4345,-81.9647,10.0,6.2,146.7,-9999.0,'1111122,1111122,1111122' 
SCCF RECON,ioos:station:SCCF:16:1,2017-10-08T09:30:00Z,26.4345,-81.9647,10.0,6.0,140.2,-9999.0,'1111122,1111122,1111122' 
SCCF RECON,ioos:station:SCCF:16:1,2017-10-08T10:30:00Z,26.4345,-81.9647,10.0,5.2,140.5,-9999.0,'1111122,1111122,1111122' 
SCCF RECON,ioos:station:SCCF:16:1,2017-10-08T11:30:00Z,26.4345,-81.9647,10.0,5.2,140.4,-9999.0,'1111122,1111122,1111122' 
SCCF RECON,ioos:station:SCCF:16:1,2017-10-08T12:30:00Z,26.4345,-81.9647,10.0,5.7,141.3,-9999.0,'1111122,1111122,1111122' 
SCCF RECON,ioos:station:SCCF:16:1,2017-10-08T13:30:00Z,26.4345,-81.9647,10.0,5.8,156.6,-9999.0,'1111122,1111122,1111122' 
SCCF RECON,ioos:station:SCCF:16:1,2017-10-08T14:30:00Z,26.4345,-81.9647,10.0,5.3,148.6,-9999.0,'1111122,1111122,1111122' 
SCCF RECON,ioos:station:SCCF:16:1,2017-10-08T15:30:00Z,26.4345,-81.9647,10.0,3.6,197.6,-9999.0,'1111122,1111122,1111122' 
SCCF RECON,ioos:station:SCCF:16:1,2017-10-08T16:30:00Z,26.4345,-81.9647,10.0,6.2,165.5,-9999.0,'1111122,1111122,1111122' 
SCCF RECON,ioos:station:SCCF:16:1,2017-10-08T17:30:00Z,26.4345,-81.9647,10.0,5.9,205.3,-9999.0,'1111122,1111122,1111122' 
SCCF RECON,ioos:station:SCCF:16:1,2017-10-08T18:30:00Z,26.4345,-81.9647,10.0,7.1,195.4,-9999.0,'1111122,1111122,1111122' 
SCCF RECON,ioos:station:SCCF:16:1,2017-10-08T19:30:00Z,26.4345,-81.9647,10.0,5.4,197.5,-9999.0,'1111122,1111122,1111122' 
SCCF RECON,ioos:station:SCCF:16:1,2017-10-08T20:30:00Z,26.4345,-81.9647,10.0,4.7,204.6,-9999.0,'1111122,1111122,1111122' 
SCCF RECON,ioos:station:SCCF:16:1,2017-10-08T21:30:00Z,26.4345,-81.9647,10.0,5.4,188.4,-9999.0,'1111122,1111122,1111122' 
SCCF RECON,ioos:station:SCCF:16:1,2017-10-08T22:30:00Z,26.4345,-81.9647,10.0,4.1,166.5,-9999.0,'1111122,1111122,1111122' 
SCCF RECON,ioos:station:SCCF:16:1,2017-10-09T04:30:00Z,26.4345,-81.9647,10.0,4.4,101.2,-9999.0,'1111122,1111122,1111122' 
SCCF RECON,ioos:station:SCCF:16:1,2017-10-09T05:30:00Z,26.4345,-81.9647,10.0,4.1,119.4,-9999.0,'1111122,1111122,1111122' 
SCCF RECON,ioos:station:SCCF:16:1,2017-10-09T06:30:00Z,26.4345,-81.9647,10.0,3.2,119.9,-9999.0,'1111122,1111122,1111122' 
SCCF RECON,ioos:station:SCCF:16:1,2017-10-09T07:30:00Z,26.4345,-81.9647,10.0,4.7,147.3,-9999.0,'1111122,1111122,1111122' 
SCCF RECON,ioos:station:SCCF:16:1,2017-10-09T08:30:00Z,26.4345,-81.9647,10.0,4.3,132.3,-9999.0,'1111122,1111122,1111122' 
SCCF RECON,ioos:station:SCCF:16:1,2017-10-09T09:30:00Z,26.4345,-81.9647,10.0,4.1,134.4,-9999.0,'1111122,1111122,1111122' 
SCCF RECON,ioos:station:SCCF:16:1,2017-10-09T10:30:00Z,26.4345,-81.9647,10.0,3.2,116.9,-9999.0,'1111122,1111122,1111122' 
SCCF RECON,ioos:station:SCCF:16:1,2017-10-09T11:30:00Z,26.4345,-81.9647,10.0,3.3,114.1,-9999.0,'1111122,1111122,1111122' 
SCCF RECON,ioos:station:SCCF:16:1,2017-10-09T12:30:00Z,26.4345,-81.9647,10.0,2.8,89.4,-9999.0,'1111122,1111122,1111122' 
SCCF RECON,ioos:station:SCCF:16:1,2017-10-09T14:30:00Z,26.4345,-81.9647,10.0,1.2,231.4,-9999.0,'1111122,1111122,1111122' 
SCCF RECON,ioos:station:SCCF:16:1,2017-10-09T15:30:00Z,26.4345,-81.9647,10.0,1.4,122.8,-9999.0,'1111122,1111122,1111122' 
SCCF RECON,ioos:station:SCCF:16:1,2017-10-09T16:30:00Z,26.4345,-81.9647,10.0,2.6,93.8,-9999.0,'1111122,1111122,1111122' 
SCCF RECON,ioos:station:SCCF:16:1,2017-10-09T18:00:00Z,26.4345,-81.9647,10.0,3.6,103.5,-9999.0,'1111122,1111122,1111122' 
SCCF RECON,ioos:station:SCCF:16:1,2017-10-09T18:30:00Z,26.4345,-81.9647,10.0,3.5,88.7,-9999.0,'1111122,1111122,1111122' 
SCCF RECON,ioos:station:SCCF:16:1,2017-10-09T19:30:00Z,26.4345,-81.9647,10.0,4.3,64.7,-9999.0,'1111122,1111122,1111122' 
SCCF RECON,ioos:station:SCCF:16:1,2017-10-09T20:30:00Z,26.4345,-81.9647,10.0,5.3,105.5,-9999.0,'1111122,1111122,1111122' 
SCCF RECON,ioos:station:SCCF:16:1,2017-10-09T21:30:00Z,26.4345,-81.9647,10.0,6.4,69.9,-9999.0,'1111122,1111122,1111122' 
SCCF RECON,ioos:station:SCCF:16:1,2017-10-09T22:30:00Z,26.4345,-81.9647,10.0,7.1,61.6,-9999.0,'1111122,1111122,1111122' 
SCCF RECON,ioos:station:SCCF:16:1,2017-10-10T04:30:00Z,26.4345,-81.9647,10.0,5.3,78.8,-9999.0,'1111122,1111122,1111122' 
SCCF RECON,ioos:station:SCCF:16:1,2017-10-10T05:30:00Z,26.4345,-81.9647,10.0,5.6,102.1,-9999.0,'1111122,1111122,1111122' 
SCCF RECON,ioos:station:SCCF:16:1,2017-10-10T06:30:00Z,26.4345,-81.9647,10.0,4.6,92.0,-9999.0,'1111122,1111122,1111122' 
SCCF RECON,ioos:station:SCCF:16:1,2017-10-10T07:30:00Z,26.4345,-81.9647,10.0,3.7,83.1,-9999.0,'1111122,1111122,1111122' 
SCCF RECON,ioos:station:SCCF:16:1,2017-10-10T08:30:00Z,26.4345,-81.9647,10.0,6.3,101.9,-9999.0,'1111122,1111122,1111122' 
SCCF RECON,ioos:station:SCCF:16:1,2017-10-10T09:30:00Z,26.4345,-81.9647,10.0,5.1,56.9,-9999.0,'1111122,1111122,1111122' 
SCCF RECON,ioos:station:SCCF:16:1,2017-10-10T10:30:00Z,26.4345,-81.9647,10.0,4.6,61.4,-9999.0,'1111122,1111122,1111122' 
SCCF RECON,ioos:station:SCCF:16:1,2017-10-10T11:30:00Z,26.4345,-81.9647,10.0,4.9,70.2,-9999.0,'1111122,1111122,1111122' 
SCCF RECON,ioos:station:SCCF:16:1,2017-10-10T12:30:00Z,26.4345,-81.9647,10.0,5.8,63.3,-9999.0,'1111122,1111122,1111122' 
SCCF RECON,ioos:station:SCCF:16:1,2017-10-10T13:30:00Z,26.4345,-81.9647,10.0,3.5,85.4,-9999.0,'1111122,1111122,1111122' 
SCCF RECON,ioos:station:SCCF:16:1,2017-10-10T14:30:00Z,26.4345,-81.9647,10.0,4.7,73.6,-9999.0,'1111122,1111122,1111122' 
SCCF RECON,ioos:station:SCCF:16:1,2017-10-10T15:30:00Z,26.4345,-81.9647,10.0,2.9,177.9,-9999.0,'1111122,1111122,1111122' 
SCCF RECON,ioos:station:SCCF:16:1,2017-10-10T16:30:00Z,26.4345,-81.9647,10.0,1.9,248.8,-9999.0,'1111122,1111122,1111122' 
SCCF RECON,ioos:station:SCCF:16:1,2017-10-10T17:30:00Z,26.4345,-81.9647,10.0,1.3,163.3,-9999.0,'1111122,1111122,1111122' 
SCCF RECON,ioos:station:SCCF:16:1,2017-10-10T18:30:00Z,26.4345,-81.9647,10.0,3.3,102.8,-9999.0,'1111122,1111122,1111122' 
SCCF RECON,ioos:station:SCCF:16:1,2017-10-10T19:30:00Z,26.4345,-81.9647,10.0,4.2,116.2,-9999.0,'1111122,1111122,1111122' 
SCCF RECON,ioos:station:SCCF:16:1,2017-10-10T20:30:00Z,26.4345,-81.9647,10.0,0.6,301.1,-9999.0,'1111122,1111122,1111122' 
SCCF RECON,ioos:station:SCCF:16:1,2017-10-10T21:30:00Z,26.4345,-81.9647,10.0,2.9,63.4,-9999.0,'1111122,1111122,1111122' 
SCCF RECON,ioos:station:SCCF:16:1,2017-10-10T22:30:00Z,26.4345,-81.9647,10.0,6.9,104.2,-9999.0,'1111122,1111122,1111122' 
SCCF RECON,ioos:station:SCCF:16:1,2017-10-11T04:30:00Z,26.4345,-81.9647,10.0,3.6,48.8,-9999.0,'1111122,1111122,1111122' 
SCCF RECON,ioos:station:SCCF:16:1,2017-10-11T05:30:00Z,26.4345,-81.9647,10.0,3.5,44.3,-9999.0,'1111122,1111122,1111122' 
SCCF RECON,ioos:station:SCCF:16:1,2017-10-11T06:30:00Z,26.4345,-81.9647,10.0,3.6,58.5,-9999.0,'1111122,1111122,1111122' 
SCCF RECON,ioos:station:SCCF:16:1,2017-10-11T07:30:00Z,26.4345,-81.9647,10.0,2.7,55.7,-9999.0,'1111122,1111122,1111122' 
SCCF RECON,ioos:station:SCCF:16:1,2017-10-11T08:30:00Z,26.4345,-81.9647,10.0,3.5,62.5,-9999.0,'1111122,1111122,1111122' 
SCCF RECON,ioos:station:SCCF:16:1,2017-10-11T09:30:00Z,26.4345,-81.9647,10.0,3.5,25.6,-9999.0,'1111122,1111122,1111122' 
SCCF RECON,ioos:station:SCCF:16:1,2017-10-11T10:30:00Z,26.4345,-81.9647,10.0,3.8,44.7,-9999.0,'1111122,1111122,1111122' 
SCCF RECON,ioos:station:SCCF:16:1,2017-10-11T11:30:00Z,26.4345,-81.9647,10.0,4.5,49.2,-9999.0,'1111122,1111122,1111122' 
SCCF RECON,ioos:station:SCCF:16:1,2017-10-11T12:30:00Z,26.4345,-81.9647,10.0,4.1,37.0,-9999.0,'1111122,1111122,1111122' 
SCCF RECON,ioos:station:SCCF:16:1,2017-10-11T13:30:00Z,26.4345,-81.9647,10.0,5.2,71.5,-9999.0,'1111122,1111122,1111122' 